Atka, AK

8:51 PM HDT on September 04, 2015 (GMT -0900)
Atka | | Change Station
CLOSE
Current Station
Airport
Location: Atka,
Elevation: 56 ft
Nearby Weather Stations

Elev 56 ft 52.22 °N, 174.21 °W | Updated 15 minutes ago

Overcast
Overcast
54 °F
Feels Like 54 °F
N
7
Wind Variable Wind from West

Today
High -- | Low -- °F
--% Chance of Precip.
Yesterday
High -- | Low -- °F
Precip. -- in
7:53 AM 9:17 PM
Waning Gibbous, 52% visible
Pressure 30.03 in
Visibility 10.0 miles
Clouds Mostly Cloudy 10000 ft
Overcast 12000 ft
Dew Point 46 °F
Humidity 77%
Rainfall 0.00 in
Snow Depth Not available.
UV 0 out of 12
Pollen Not available.
Air Quality Not available.
Flu Activity Not available.
METAR PAAK 050536Z 27006KT 10SM BKN100 OVC120 12/08 A3003 RMK AO1
Pressure 30.03 in
Visibility 10.0 miles
Clouds Mostly Cloudy 10000 ft
Overcast 12000 ft
Dew Point 46 °F
Humidity 77%
Rainfall 0.00 in
Snow Depth Not available.
UV 0 out of 12
Pollen Not available.
Air Quality Not available.
Flu Activity Not available.
METAR PAAK 050536Z 27006KT 10SM BKN100 OVC120 12/08 A3003 RMK AO1

10-Day Weather Forecast

×

Almanac

Astronomy

Sep. 04, 2015 Rise Set
Actual Time
Civil Twilight
Nautical Twilight
Astronomical Twilight
Moon
Length of Visible Light
Length of Day
Tomorrow will be .
, % of the Moon is Illuminated

Today's Extremes

State Highs State Lows

Community

WunderPhotos

Upload Photos

1,852,428 photos uploaded!

WunderBlogs® & News

Nearby

Air Quality

  Air Quality AQ Index Pollutant
Not available.

Snow Depth

Station Depth Elevation

Earthquake Activity

City Distance Mag. Time & Date
Minimum magnitude displayed is 2.5.

Coastal Water Temperatures

Place Temperature

Stations

Nearby Weather Stations

Station Location Temp. Windchill Dew Point Humidity Wind Precip. Elev Updated Type